Weather History for Vidsel, Sweden

Change the Weather History Date:

Friday, January 18, 2013

  Actual Average Record
Temperature  
Mean Temperature 14 °F -  
Max Temperature 33 °F - - ()
Min Temperature -5 °F - - ()
Degree Days  
Heating Degree Days 51    
Moisture  
Dew Point 17 °F    
Average Humidity 90    
Maximum Humidity 100    
Minimum Humidity 81    
Precipitation  
Precipitation 0.00 in - - ()
Sea Level Pressure  
Sea Level Pressure 29.89 in    
Wind  
Wind Speed 2 mph ()    
Max Wind Speed 9 mph    
Max Gust Speed -    
Visibility 6.2 miles    
Events      
T = Trace of Precipitation, MM = Missing Value Source: Averaged Metar Reports

Daily Weather History Graph

Daily Weather History Graph

Search for Another Location

Airport:

Trip Planner

Search our weather history database for the weather conditions in past years. The results will help you decide how hot, cold, wet, or windy it might be!

Date:

Astronomy

Jan. 18, 2013 Rise Set
Actual Time 9:20 AM CET 2:19 PM CET
Civil Twilight 8:06 AM CET 3:34 PM CET
Nautical Twilight 6:57 AM CET 4:42 PM CET
Astronomical Twilight 5:56 AM CET 5:44 PM CET
Moon 9:21 AM CET 12:10 AM CET
Length of Visible Light 7h 27m
Length of Day
4h 58m
Waxing Crescent, 45% of the Moon is Illuminated
Jan 18
Waxing Crescent
Jan 19
First Quarter
Jan 27
Full
Feb 3
Last Quarter
Feb 10
New

Hourly Weather History & Observations

Time (CET) Temp. Windchill Dew Point Humidity Pressure Visibility Wind Dir Wind Speed Gust Speed Precip Events Conditions
12:20 AM -5.8 °F - -9.4 °F 84% 30.06 in 6.2 mi Calm Calm - N/A   Unknown
12:50 AM 1.4 °F - -2.2 °F 85% 30.06 in 6.2 mi Calm Calm - N/A   Unknown
1:20 AM 1.4 °F - -2.2 °F 85% 30.06 in 6.2 mi WNW 1.2 mph - N/A   Unknown
1:50 AM -0.4 °F - -4.0 °F 85% 30.04 in 6.2 mi Calm Calm - N/A   Unknown
2:20 AM -0.4 °F - -4.0 °F 85% 30.04 in 6.2 mi Calm Calm - N/A   Unknown
2:50 AM -0.4 °F - -4.0 °F 85% 30.04 in 6.2 mi Calm Calm - N/A   Unknown
3:50 AM -2.2 °F - -5.8 °F 85% 30.04 in 6.2 mi Calm Calm - N/A   Mostly Cloudy
4:20 AM 1.4 °F - -2.2 °F 85% 30.01 in 6.2 mi Calm Calm - N/A   Overcast
4:50 AM 5.0 °F - 3.2 °F 92% 30.01 in 6.2 mi Calm Calm - N/A   Overcast
5:20 AM 5.0 °F - 3.2 °F 92% 29.98 in 6.2 mi Calm Calm - N/A   Overcast
5:50 AM 8.6 °F - 5.0 °F 85% 29.98 in 6.2 mi Calm Calm - N/A   Overcast
6:20 AM 6.8 °F - 3.2 °F 85% 29.95 in - Calm Calm - N/A   Clear
6:50 AM 10.4 °F - 6.8 °F 85% 29.95 in - Calm Calm - N/A   Clear
7:20 AM 12.2 °F - 10.4 °F 92% 29.95 in - Calm Calm - N/A   Clear
7:50 AM 14.0 °F - 10.4 °F 86% 29.92 in - Calm Calm - N/A   Clear
8:20 AM 14.0 °F - 10.4 °F 86% 29.92 in - Calm Calm - N/A   Clear
8:50 AM 14.0 °F - 12.2 °F 93% 29.92 in - Calm Calm - N/A   Clear
9:20 AM 14.0 °F - 12.2 °F 93% 29.92 in - Variable 1.2 mph - N/A   Clear
9:50 AM 17.6 °F - 17.6 °F 100% 29.89 in - Variable 1.2 mph - N/A   Clear
10:20 AM 19.4 °F - 17.6 °F 93% 29.89 in - Variable 2.3 mph - N/A   Clear
10:50 AM 21.2 °F 16.4 °F 19.4 °F 93% 29.89 in - NW 3.5 mph - N/A   Clear
11:20 AM 23.0 °F 18.4 °F 21.2 °F 93% 29.89 in - WNW 3.5 mph - N/A   Clear
11:50 AM 23.0 °F - 21.2 °F 93% 29.89 in - North 2.3 mph - N/A   Clear
12:20 PM 24.8 °F - 23.0 °F 93% 29.89 in 6.2 mi NNW 1.2 mph - N/A   Unknown
12:50 PM 24.8 °F - 23.0 °F 93% 29.86 in 6.2 mi Variable 2.3 mph - N/A   Unknown
1:20 PM 24.8 °F 20.5 °F 23.0 °F 93% 29.86 in 6.2 mi NW 3.5 mph - N/A   Unknown
1:50 PM 24.8 °F - 23.0 °F 93% 29.86 in 6.2 mi North 2.3 mph - N/A   Unknown
2:20 PM 24.8 °F - 24.8 °F 100% 29.86 in 6.2 mi Variable 1.2 mph - N/A   Unknown
2:50 PM 24.8 °F - 24.8 °F 100% 29.83 in 6.2 mi Variable 2.3 mph - N/A   Partly Cloudy
3:20 PM 26.6 °F 21.2 °F 24.8 °F 93% 29.83 in 6.2 mi NW 4.6 mph - N/A   Unknown
3:50 PM 26.6 °F 20.0 °F 23.0 °F 86% 29.83 in 6.2 mi NW 5.8 mph - N/A   Partly Cloudy
4:20 PM 26.6 °F 20.0 °F 24.8 °F 93% 29.83 in 6.2 mi NW 5.8 mph - N/A   Scattered Clouds
4:50 PM 28.4 °F 22.2 °F 26.6 °F 93% 29.83 in 6.2 mi WNW 5.8 mph - N/A   Unknown
5:20 PM 28.4 °F 21.2 °F 26.6 °F 93% 29.83 in 6.2 mi NW 6.9 mph - N/A   Mostly Cloudy
5:50 PM 30.2 °F 26.7 °F 28.4 °F 93% 29.83 in 6.2 mi WNW 3.5 mph - N/A   Partly Cloudy
6:20 PM 28.4 °F - 28.4 °F 100% 29.83 in 6.2 mi Variable 2.3 mph - N/A   Unknown
6:50 PM 28.4 °F - 26.6 °F 93% 29.80 in 6.2 mi Variable 1.2 mph - N/A   Mostly Cloudy
7:20 PM 30.2 °F 24.3 °F 28.4 °F 93% 29.80 in 6.2 mi West 5.8 mph - N/A   Unknown
7:50 PM 30.2 °F 26.7 °F 28.4 °F 93% 29.77 in 6.2 mi West 3.5 mph - N/A   Unknown
8:20 PM 30.2 °F 24.3 °F 28.4 °F 93% 29.77 in 6.2 mi West 5.8 mph - N/A   Unknown
8:50 PM 32.0 °F 25.6 °F 28.4 °F 87% 29.77 in 6.2 mi West 6.9 mph - N/A   Unknown
9:20 PM 32.0 °F 25.6 °F 28.4 °F 87% 29.77 in 6.2 mi West 6.9 mph - N/A   Partly Cloudy
9:50 PM 32.0 °F 26.4 °F 28.4 °F 87% 29.74 in 6.2 mi West 5.8 mph - N/A   Partly Cloudy
10:20 PM 32.0 °F 24.2 °F 28.4 °F 87% 29.74 in 6.2 mi West 9.2 mph - N/A   Scattered Clouds
10:50 PM 33.8 °F 27.7 °F 28.4 °F 81% 29.74 in 6.2 mi West 6.9 mph - N/A   Overcast
11:20 PM 32.0 °F 25.6 °F 30.2 °F 93% 29.74 in 6.2 mi West 6.9 mph - N/A   Overcast
11:50 PM 32.0 °F 25.6 °F 30.2 °F 93% 29.71 in 6.2 mi West 6.9 mph - N/A   Overcast